COSMOS 2251 DEB, 37330

Orbit data source: Space-Track

COSMOS 2251 DEB, 37330 is space debris in LEO originally from a launch on Wed, 16 Jun 1993 UTC launched from the Plesetsk Missile And Space Complex (PKMTR). The debris from Iridium 33, an American commercial communications satellite, has been tracked extensively since its accidental collision with the defunct Russian satellite Cosmos 2251 in 2009. This event, occurring at high speed in low Earth orbit (LEO), generated thousands of pieces of space debris, significantly increasing the risk of further collisions. The Iridium 33 debris cloud has impacted space traffic management and orbital debris mitigation strategies, making it a subject of ongoing study in space situational awareness.

Loading next visibility...
Identifier
37330, 1993-036BKW
Orbit
LEO
Country
Flag of CISCIS
Related business
Manufacturer
Unknown
Mission
Spacecraft
Bus & Motor
Unknown
Mass
Unknown
Launch date (UTC)
1993-06-16 (33 years ago)
Launch vehicle
Unknown
Launch site
Plesetsk Missile And Space Complex (PKMTR)
Object type
Payload
Rocket body
Debris
Shape & HBR
Unknown shape, 0.1 m
Radar Cross Section
Small (<0.1 m²)

Expand to show TLE details & history
Last TLE update: 2 days ago

TLE from 2 days ago
0 COSMOS 2251 DEB
1 37330U 93036BKW 26120.02399480  .00001075  00000-0  22522-3 0  9992
2 37330  74.0191  31.0037 0058506 204.5008 155.3376 14.59971639883864
Epoch: 2026-04-30T00:34Z
TLE epoch observation values (Epoch: 2026-04-30T00:34:33.150Z)
Latitude
-0.00005°
Longitude
164.38902°
Altitude
733.551 km
Speed
7.469 km/s
True Right ascension
02h 04m 00s
True Declination
0° 00' 00"
Sunlit
Object was in daylight at epoch
Visualization orbit readout
Latitude
Unknown
Longitude
Unknown
Altitude
Unknown
Speed
Unknown
Apparent Right ascension
Unknown
Apparent Declination
Unknown
Sunlit
N/A
Visualization observer readout
Local Sidereal Time
00:13:04
Azimuth
Unknown
Elevation
Unknown
Doppler factor
Unknown
Orbital elements
Apogee altitude
732.222 km
Perigee altitude
649.507 km
Semi-major axis
7,069.001 km
Eccentricity
0.00585
Inclination
74.0191°
RAAN
31.0037°
Arg. of periapsis
204.5008°
True anomaly
155.6155°
Mean anomaly
155.3376°
Eccentric anomaly
155.47674°
Mean motion
3.65179 °/min
Orbital period
98.58 mins
BSTAR
0.00022522
Loading maneuver chart data...
Computing Atmospheric mass density...

Documentation

Showing up to 5 results
|